Location: Bannatyne
(13.0833°N, 59.5333°W)
Time: 01:09:35
(UTC+00:00)

deb Explorer IX - Pass Details

Date: 30 January 2020
Orbit: 549 x 1099 km, 38.8° (Epoch: 19 February)

Event Time Altitude Azimuth Distance (km) Brightness Sun altitude
Rises 20:45:23 0° 229° (SW) 2,988 ? 15.8°
Reaches altitude 10° 20:47:36 10° 228° (SW) 2,148 ? 15.3°
Maximum altitude 20:52:38 83° 140° (SE) 786 ? 14.1°
Drops below altitude 10° 20:58:37 10° 53° (NE) 2,530 ? 12.8°
Sets 21:01:24 0° 52° (NE) 3,562 ? 12.2°
